Regional Weather Roundup
Issued by NWS Albany, NY

Home | Current Version | Previous Version | Graphics & Text | Print | Product List | Glossary Off
Versions: 1 2 3 4 5 6 7 8 9 10 11 12 13 14 15 16 17 18 19 20 21 22 23 24 25 26 27 28 29 30 31 32 33 34 35 36 37 38 39 40 41 42 43 44 45 46 47 48 49

000
ASUS41 KALY 040610
RWRALY

NEW YORK STATE HOURLY WEATHER ROUNDUP
NATIONAL WEATHER SERVICE ALBANY NY
100 AM EST WED MAR 04 2015

NOTE: "FAIR" INDICATES FEW OR NO CLOUDS BELOW 12,000 FEET WITH NO
SIGNIFICANT WEATHER AND/OR NO OBSTRUCTIONS TO VISIBILITY.

NYZ032-033-038>043-046>054-057>066-NYZ062>081-040700-
EAST


CITY           SKY/WX    TMP DP  RH WIND       PRES   REMARKS
ALBANY         CLOUDY    31  25  78 S15G23    29.69F WCI  20
GLENS FALLS    CLOUDY    27  24  89 SW7       29.67F FOG     WCI  19
POUGHKEEPSIE   CLOUDY    35  31  85 S6        29.76F WCI  30
NEWBURGH       CLOUDY    34  32  93 W9        29.77F WCI  26
MONTGOMERY     CLOUDY    33  30  88 S7        29.73F WCI  27
WHITE PLAINS   CLOUDY    34  31  88 SW5       29.78F WCI  30
ISLIP          CLOUDY    36  33  89 SW9       29.78F WCI  29
NEW YORK CITY  CLOUDY    36  32  85 SW12G20   29.81S WCI  28
CENTRAL PARK   CLOUDY    36  31  82 VRB7G22   29.82S WCI  30
$$

NYZ005>009-017-018-044>046-055-056-040700-
CENTRAL


CITY           SKY/WX    TMP DP  RH WIND       PRES   REMARKS
FULTON         CLOUDY    33  28  81 CALM      29.65R
SYRACUSE       FRZ DRZL  31  31 100 W8        29.65R WCI  23
ROME           FRZ RAIN  30  28  92 CALM      29.66S FOG
ELMIRA         CLOUDY    32  30  92 SW5       29.67R WCI  27
BINGHAMTON     CLOUDY    28  25  88 S7        29.65S WCI  21
MONTICELLO     CLOUDY    25  21  86 CALM      29.72F
$$

NYZ026>034-041>043-040700-
NORTH


CITY           SKY/WX    TMP DP  RH WIND       PRES   REMARKS
WATERTOWN      CLOUDY    35  31  85 SW13      29.61R WCI  26
FORT DRUM      NOT AVBL
MASSENA        FRZ RAIN  32  32 100 SW15G23   29.55S FOG     WCI  22
SARANAC LAKE   CLOUDY    28  26  92 SW14      29.48S FOG     WCI  17
PLATTSBURGH    CLOUDY    26  21  81 S16       29.56R WCI  14
$$

NYZ001>004-010>016-019>021-040700-
WEST


CITY           SKY/WX    TMP DP  RH WIND       PRES   REMARKS
NIAGARA FALLS  LGT RAIN  34  31  88 W12       29.68R FOG     WCI  25
BUFFALO        LGT RAIN  34  32  92 SW16G30   29.68R WCI  24
DUNKIRK        CLOUDY    35  33  92 SW20G30   29.73R WCI  24
JAMESTOWN      CLOUDY    34  30  86 W21G32    29.70R WCI  22
WELLSVILLE     CLOUDY    37  34  89 W8        29.64S WCI  31
ROCHESTER      CLOUDY    37  32  82 W18G31    29.65R WCI  27
PENN YAN       LGT RAIN  34  29  82 VRB6      29.64R WCI  29
$$

             KEY
       WCI = WIND CHILL INDEX
       VSB = VISIBILITY
       HX  = HEAT INDEX
$$


USA.gov is the U.S. government's official web portal to all federal, state and local government web resources and services.